Погода в Аркадаке

Россия / Саратовская область     51°56′19″N   43°29′59″E
темп.,
°C
ветер,
м/с
пор.,
м/с
влажн.,
%
обл.,
%
осадки,
мм/ч
давл.,
гПа
погр.,
м
20 сентября, пн
пн2001:00+11вюв71541100 0.0 1018731
04:00+11юв81541100 0.1 1017819
07:00+7вюв101987100 9.0 1016614
10:00+6вюв102087100 19.8 1016718
13:00+7вюв91877100 2.8 1017753
16:00+7вюв81687100 6.3 1017784
19:00+8вюв81583100 0.9 1016767
22:00+8вюв71385100 1.0 1016578
21 сентября, вт
вт2101:00+8вюв61483100 0.1 1015482
04:00+9вюв61277100 0.1 1014418
07:00+8вюв5117923 0.0 1014334
10:00+10вюв5985100 0.2 1013415
13:00+15ююв4671100 0.4 1012754
16:00+17ю2366100 0.9 1011921
19:00+13ююв2385100 2.4 101042
22:00+11з238614 3.3 101154
22 сентября, ср
ср2201:00+10ююз228769 0.0 101034
04:00+9ю338929 0.0 101054
07:00+7ю37965 0.0 1010174
10:00+11юз578671 0.2 1011630
13:00+13зюз676384 0.4 10121233
16:00+12ююз4561100 0.6 10131140
19:00+11юз2270100 0.0 101445
22:00+10юз2271100 0.0 101528
23 сентября, чт
чт2301:00+10с1172100 0.0 101511
04:00+10в2275100 0.0 101529
07:00+9св2284100 0.1 101543
10:00+11ссв1175100 0.1 1016232
13:00+13з1166100 0.0 1015722
16:00+14юз2357100 0.2 1015970
19:00+12с0062100 0.0 101610
22:00+11в3474100 0.0 101689
24 сентября, пт
пт2401:00+11в3594100 0.0 1015157
04:00+11в2597100 8.2 1015308
07:00+9всв3596100 9.8 1013261
10:00+9всв4693100 14.9 1013325
13:00+9вюв3693100 1.8 1012421
16:00+10ююв2593100 2.0 1012376
19:00+10з129488 0.0 1012106
22:00+9зсз239417 0.0 101269